Torna al catalogo

STARLINK-31125

AttivoComunicazioniVLEO
NORAD 58678·PAYLOAD·🇺🇸 United States

Lanciato Dec 29, 2023 da Cape Canaveral Space Force Station

Loading…

Prossimi Passaggi (prossime 24 ore)

TLE

AggiornatoSource: CelesTrak SupGP

Epoca: Sep 15, 2026, 02:17 UTC

1 58678C 23211M   26258.09562500  .00025515  00000+0  92401-3 0  2587
2 58678  42.9997  95.7032 0001491 274.9243 341.0597 15.27570605    16

Traccia STARLINK-31125 in tempo reale con AllMySat

Download on the App Store